Simultaneous Nadir Overpasses (SNOs) Predictions

Prediction of SNOs between METOP-B and TERRA Satellite Orbit:

Table of predicted SNOs for the next 14.0 days since TLE Epoch: 12/21/2024
Index Date (METOP-B) Time (METOP-B) Lat,Lon (METOP-B) SZA (METOP-B ) Date (TERRA) Time (TERRA) Lat,Lon (TERRA) SZA (TERRA ) Distance(km) Time Diff (sec)
1 12/22/2024 19:56:43 79.32,-107.53 102.90 12/22/2024 19:57:21 79.31,-107.62 102.90 1.83 38
2 12/22/2024 20:47:19 -79.50, 61.20 76.87 12/22/2024 20:46:36 -79.51, 61.33 76.86 2.94 43
3 12/25/2024 09:36:40 -79.19,-133.41 77.32 12/25/2024 09:37:24 -79.20,-133.32 77.30 2.16 44
4 12/25/2024 10:27:10 79.56, 36.70 103.15 12/25/2024 10:26:35 79.55, 36.56 103.13 3.08 35
5 12/27/2024 23:16:32 79.21,-158.30 102.59 12/27/2024 23:17:23 79.20,-158.36 102.59 1.47 51
6 12/28/2024 00:07:05 -79.51, 11.25 77.05 12/28/2024 00:06:36 -79.50, 11.16 77.07 2.13 29
7 12/30/2024 12:56:28 -79.08, 175.76 77.75 12/30/2024 12:57:24 -79.08, 175.89 77.73 2.89 56
8 12/30/2024 13:47:00 79.37, -14.77 102.62 12/30/2024 13:46:36 79.38, -14.63 102.63 2.95 24
9 01/02/2025 02:36:17 79.17, 151.46 102.16 01/02/2025 02:37:19 79.17, 151.34 102.15 2.52 62



Historial Predications of SNOs between METOP-B and TERRA
